User: anonymous   Login
Location: Unspecified
(0.0000°N, 0.0000°E)
Time: 13:00:33
(UTC+00:00)
Language:

Vela 3B - Orbit

View from above orbital plane
View from above orbital plane
View from above satellite
View from above satellite

Ground track
Ground track

The orbit data is extracted from the following two-line orbital elements,

1  1459U 65058B   17143.54917011 -.00000621 +00000-0 +00000-0 0  9997
2  1459 011.0166 057.7199 4653945 309.7043 000.9665 00.21428931040950
Epoch (UTC): 23 May 2017 13:10:48
Eccentricity: 0.4653945
inclination: 11.0166°
perigee height: 56683 km
apogee height: 166478 km
right ascension of ascending node: 57.7199°
argument of perigee: 309.7043°
revolutions per day: 0.21428931
mean anomaly at epoch: 0.9665°
orbit number at epoch: 4095

The dashed part of the orbit path shows where the satellite is in the earth's shadow,  

DLR